N365AD -KSAN

Flight info

Callsign N365AD
Flight time N/A
Altitude VFR
Route
Aircraft C172/L-VGD/C

Departure

Time N/A
Airport -

Arrival

Time 2026-05-04 21:26
Airport San Diego International Airport (KSAN)
Time Latitude Longitude Altitude Speed Heading
2026-05-04 21:26 32.73501 -117.18722 18 ft 0 kts 16°
2026-05-04 21:28 32.73463 -117.18666 18 ft 17 kts 142°
2026-05-04 21:28 32.73359 -117.18453 21 ft 37 kts 72°
2026-05-04 21:28 32.73501 -117.18722 17 ft 0 kts 16°
2026-05-04 21:29 32.73475 -117.18674 18 ft 18 kts 141°
2026-05-04 21:30 32.73359 -117.18534 21 ft 30 kts 105°
2026-05-04 21:30 32.73300 -117.18252 19 ft 40 kts 108°
2026-05-04 21:30 32.73218 -117.17930 17 ft 39 kts 109°
2026-05-04 21:30 32.73157 -117.17641 18 ft 34 kts 108°
2026-05-04 21:31 32.73099 -117.17556 18 ft 0 kts 154°
2026-05-04 21:33 32.73076 -117.17551 18 ft 11 kts 186°
2026-05-04 21:33 32.73033 -117.17639 17 ft 14 kts 283°
2026-05-04 21:33 32.73049 -117.17714 17 ft 33 kts 289°
2026-05-04 21:33 32.73154 -117.18171 135 ft 67 kts 287°
2026-05-04 21:34 32.73274 -117.18719 493 ft 72 kts 287°
2026-05-04 21:34 32.73367 -117.19278 913 ft 67 kts 282°
2026-05-04 21:34 32.73447 -117.19843 1288 ft 72 kts 284°
2026-05-04 21:34 32.73854 -117.20225 1529 ft 95 kts 352°
2026-05-04 21:35 32.74495 -117.19784 1605 ft 123 kts 51°
2026-05-04 21:35 32.74820 -117.18827 1722 ft 131 kts 84°
2026-05-04 21:35 32.74740 -117.17720 1784 ft 140 kts 95°
2026-05-04 21:35 32.74692 -117.16641 2043 ft 132 kts 91°
2026-05-04 21:36 32.74711 -117.15495 1952 ft 135 kts 86°
2026-05-04 21:36 32.74706 -117.14486 1836 ft 114 kts 107°
2026-05-04 21:36 32.74199 -117.13770 1536 ft 113 kts 160°
2026-05-04 21:36 32.73521 -117.13805 1347 ft 93 kts 217°
2026-05-04 21:37 32.73122 -117.14408 1029 ft 94 kts 246°
2026-05-04 21:37 32.72822 -117.15064 784 ft 91 kts 252°
2026-05-04 21:37 32.72664 -117.15907 655 ft 117 kts 266°
2026-05-04 21:37 32.72862 -117.16888 382 ft 115 kts 289°
2026-05-04 21:38 32.73046 -117.17709 98 ft 91 kts 286°
2026-05-04 21:38 32.73207 -117.18332 62 ft 73 kts 286°
2026-05-04 21:38 32.73343 -117.18937 365 ft 78 kts 288°
2026-05-04 21:38 32.73422 -117.19597 698 ft 79 kts 280°
2026-05-04 21:39 32.73535 -117.20193 1099 ft 72 kts 283°
2026-05-04 21:39 32.74044 -117.20483 1214 ft 104 kts 11°
2026-05-04 21:39 32.74553 -117.19754 1229 ft 127 kts 76°
2026-05-04 21:39 32.74392 -117.18705 1213 ft 134 kts 110°
2026-05-04 21:40 32.74062 -117.17660 1118 ft 140 kts 108°
2026-05-04 21:40 32.73738 -117.16550 1127 ft 141 kts 116°
2026-05-04 21:40 32.72982 -117.16172 1146 ft 129 kts 215°
2026-05-04 21:40 32.72825 -117.16973 686 ft 105 kts 296°
2026-05-04 21:41 32.73069 -117.17817 92 ft 101 kts 287°